Tunis-Carthage, Tunisia

7:56 PM CET on October 17, 2018 (GMT +0100)
Tunis

Weather History for DTTA - October, 2018

Change the Weather History Date:

Friday, October 12, 2018

  Actual Average Record
Temperature  
Mean Temperature 73 °F -  
Max Temperature 79 °F 74 °F - ()
Min Temperature 67 °F 57 °F - ()
Cooling Degree Days 8    
Growing Degree Days 23 (Base 50)    
Moisture  
Dew Point 65 °F    
Average Humidity 74    
Maximum Humidity 88    
Minimum Humidity 61    
Precipitation  
Precipitation 0.00 in 0.08 in - ()
Sea Level Pressure  
Sea Level Pressure 30.11 in    
Wind  
Wind Speed 7 mph ()    
Max Wind Speed 15 mph    
Max Gust Speed -    
Visibility 6.1 miles    
Events      
T = Trace of Precipitation, MM = Missing Value Source: Averaged Metar Reports

Daily Weather History Graph

Daily Weather History Graph

Search for Another Location

Airport or City:

Astronomy

Oct. 12, 2018 Rise Set
Actual Time 6:23 AM CET 5:46 PM CET
Civil Twilight 5:57 AM CET 6:12 PM CET
Nautical Twilight 5:27 AM CET 6:42 PM CET
Astronomical Twilight 4:57 AM CET 7:12 PM CET
Moon 9:37 AM CET (10/12) 8:16 PM CET (10/12)
Length of Visible Light 12h 15m
Length of Day
11h 23m
Waxing Crescent, 13% of the Moon is Illuminated
Oct 12
Waxing Crescent
Oct 16
First Quarter
Oct 24
Full
Oct 31
Last Quarter
Nov 7
New

Hourly Weather History & Observations

Time (CET) Temp. Heat Index Dew Point Humidity Pressure Visibility Wind Dir Wind Speed Gust Speed Precip Events Conditions
12:00 AM 69.8 °F - 66.2 °F 88% 30.04 in 6.2 mi SE 3.5 mph - N/A   Scattered Clouds
12:30 AM 71.6 °F - 66.2 °F 83% 30.04 in 6.2 mi South 2.3 mph - N/A   Scattered Clouds
1:00 AM 71 °F - 67 °F 84% 30.05 in 6 mi SSE 2.3 mph - -   Partly Cloudy
1:30 AM 71.6 °F - 64.4 °F 78% 30.04 in 6.2 mi South 9.2 mph - N/A   Scattered Clouds
2:00 AM 71.6 °F - 62.6 °F 73% 30.06 in 6.2 mi South 5.8 mph - N/A   Scattered Clouds
2:30 AM 71.6 °F - 60.8 °F 69% 30.06 in 6.2 mi South 5.8 mph - N/A   Scattered Clouds
3:00 AM 71.6 °F - 60.8 °F 69% 30.06 in 6.2 mi South 4.6 mph - N/A   Scattered Clouds
3:30 AM 69.8 °F - 60.8 °F 73% 30.06 in 6.2 mi South 3.5 mph - N/A   Scattered Clouds
5:00 AM 68.0 °F - 60.8 °F 78% 30.06 in 6.2 mi South 6.9 mph - N/A   Scattered Clouds
5:30 AM 68.0 °F - 60.8 °F 78% 30.06 in 6.2 mi South 5.8 mph - N/A   Scattered Clouds
6:00 AM 68.0 °F - 60.8 °F 78% 30.06 in 6.2 mi South 3.5 mph - N/A   Scattered Clouds
6:30 AM 68.0 °F - 60.8 °F 78% 30.09 in 6.2 mi South 3.5 mph - N/A   Scattered Clouds
7:00 AM 68 °F - 60 °F 68% 30.10 in 5 mi West 4.6 mph - -   Scattered Clouds
7:00 AM 68.0 °F - 60.8 °F 78% 30.09 in 5.0 mi West 4.6 mph - N/A   Partly Cloudy
7:30 AM 69.8 °F - 59.0 °F 68% 30.09 in 5.0 mi West 4.6 mph - N/A   Partly Cloudy
8:00 AM 73.4 °F - 60.8 °F 65% 30.09 in 6.2 mi West 3.5 mph - N/A   Partly Cloudy
10:00 AM 78 °F - 67 °F 62% 30.15 in 6 mi WNW 9.2 mph - -   Partly Cloudy
10:00 AM 77.0 °F - 66.2 °F 69% 30.12 in 6.2 mi WNW 9.2 mph - N/A   Scattered Clouds
10:30 AM 78.8 °F - 68.0 °F 69% 30.15 in 6.2 mi NNW 12.7 mph - N/A   Scattered Clouds
11:00 AM 80.6 °F 82.7 °F 66.2 °F 61% 30.15 in 6.2 mi North 11.5 mph - N/A   Mostly Cloudy
11:30 AM 78.8 °F - 69.8 °F 74% 30.15 in 6.2 mi North 13.8 mph - N/A   Scattered Clouds
12:00 PM 80.6 °F 83.9 °F 69.8 °F 70% 30.15 in - North - - N/A   Scattered Clouds
12:30 PM 78.8 °F - 68.0 °F 69% 30.12 in 6.2 mi North 11.5 mph - N/A   Scattered Clouds
1:00 PM 79 °F - 68 °F 62% 30.14 in 6 mi North 15.0 mph - -   Partly Cloudy
1:00 PM 78.8 °F - 68.0 °F 69% 30.12 in 6.2 mi North 13.8 mph - N/A   Scattered Clouds
1:30 PM 78.8 °F - 68.0 °F 69% 30.12 in 6.2 mi North 12.7 mph - N/A   Scattered Clouds
2:00 PM 78.8 °F - 68.0 °F 69% 30.12 in 6.2 mi North 13.8 mph - N/A   Scattered Clouds
2:30 PM 77.0 °F - 66.2 °F 69% 30.12 in 6.2 mi North 13.8 mph - N/A   Scattered Clouds
3:30 PM 77.0 °F - 66.2 °F 69% 30.12 in 6.2 mi North 12.7 mph - N/A   Scattered Clouds
4:00 PM 76 °F - 66 °F 65% 30.12 in 6 mi North 12.7 mph - -   Partly Cloudy
4:00 PM 77.0 °F - 66.2 °F 69% 30.12 in 6.2 mi North 13.8 mph - N/A   Scattered Clouds
4:30 PM 75.2 °F - 66.2 °F 73% 30.12 in 6.2 mi North 13.8 mph - N/A   Scattered Clouds
5:00 PM 75.2 °F - 64.4 °F 69% 30.12 in 6.2 mi North 12.7 mph - N/A   Scattered Clouds
5:30 PM 73.4 °F - 64.4 °F 73% 30.12 in 6.2 mi North 12.7 mph - N/A   Partly Cloudy
6:00 PM 73.4 °F - 64.4 °F 73% 30.12 in 6.2 mi NNW 10.4 mph - N/A   Partly Cloudy
6:30 PM 71.6 °F - 64.4 °F 78% 30.12 in 6.2 mi NNW 9.2 mph - N/A   Partly Cloudy
7:00 PM 72 °F - 64 °F 69% 30.16 in 6 mi NNW 10.4 mph - -   Partly Cloudy
7:00 PM 71.6 °F - 64.4 °F 78% 30.15 in 6.2 mi NNW 10.4 mph - N/A   Scattered Clouds
7:30 PM 71.6 °F - 64.4 °F 78% 30.15 in 6.2 mi NNW 10.4 mph - N/A   Scattered Clouds
8:00 PM 71.6 °F - 64.4 °F 78% 30.15 in 6.2 mi NW 8.1 mph - N/A   Scattered Clouds
8:30 PM 71.6 °F - 64.4 °F 78% 30.15 in 6.2 mi NW 8.1 mph - N/A   Scattered Clouds
9:00 PM 71.6 °F - 64.4 °F 78% 30.15 in 6.2 mi WNW 5.8 mph - N/A   Scattered Clouds
9:30 PM 69.8 °F - 64.4 °F 83% 30.15 in 6.2 mi WNW 5.8 mph - N/A   Partly Cloudy
10:00 PM 71 °F - 64 °F 73% 30.17 in 6 mi West 6.9 mph - -   Scattered Clouds
10:00 PM 69.8 °F - 64.4 °F 83% 30.15 in 6.2 mi West 6.9 mph - N/A   Partly Cloudy
10:30 PM 69.8 °F - 64.4 °F 83% 30.15 in 6.2 mi West 5.8 mph - N/A   Partly Cloudy
11:00 PM 69.8 °F - 64.4 °F 83% 30.15 in 6.2 mi WNW 5.8 mph - N/A   Partly Cloudy
11:30 PM 69.8 °F - 64.4 °F 83% 30.15 in 6.2 mi West 6.9 mph - N/A   Partly Cloudy